Wind_Speed
50 69 87 94 95 100 103 106 111 110 113 123 120 126 111 112 117 118 110 106 110 109 100 97 94 92 90 86 81 76 77 81 83 83 77 66 60 69 69 72 77 73 66 64
45 58 75 90 95 96 102 103 108 112 115 119 124 121 123 122 114 112 118 116 107 98 103 112 111 112 108 103 100 98 93 83 78 80 75 67 69 75 78 66 72 67 58 58
45 48 59 78 91 96 97 102 105 110 114 113 116 122 124 125 124 124 120 115 117 116 115 106 107 113 115 113 109 104 102 100 94 86 84 82 83 79 79 75 58 56 62 66
50 52 53 59 76 94 100 102 104 108 112 116 115 113 124 125 128 127 129 132 130 122 118 118 114 110 107 102 100 101 104 102 105 106 100 103 92 83 80 69 68 70 71 74
49 53 57 62 65 74 91 102 106 107 110 112 116 117 108 121 122 121 123 131 134 131 128 127 124 119 112 109 107 97 93 93 89 87 86 85 89 82 75 75 69 67 67 69
54 55 58 62 67 70 74 83 97 107 111 111 116 120 109 117 121 122 121 124 126 130 129 133 130 129 125 122 117 114 105 101 104 91 86 90 87 88 81 70 66 67 70 69
55 58 59 62 64 68 73 78 83 88 102 111 117 119 109 114 121 122 123 124 125 124 121 121 127 130 129 130 131 129 125 122 118 110 97 87 83 74 70 74 74 72 70 74
62 63 65 66 67 69 72 75 82 87 92 96 101 110 111 116 119 120 124 126 127 125 124 122 123 123 121 118 117 116 112 105 103 105 104 92 84 83 82 79 76 79 77 75
65 66 70 72 73 75 76 80 86 89 92 94 95 98 96 104 108 118 124 124 123 121 121 121 122 120 119 117 114 111 107 101 97 92 88 84 81 85 85 84 83 82 78 81
71 70 76 78 78 78 80 84 86 90 90 91 87 90 92 98 99 103 102 106 113 119 121 121 119 117 118 116 113 110 107 103 98 91 87 86 84 81 81 79 83 85 82 75
72 71 74 78 81 80 82 83 86 87 89 88 82 77 87 92 93 94 96 99 101 103 105 106 111 116 117 113 110 107 103 99 95 90 84 82 81 79 77 74 77 79 75 69
64 64 66 72 76 75 75 76 72 70 74 74 65 58 81 79 79 84 85 89 90 94 96 97 99 99 99 101 103 104 98 93 92 89 85 80 75 72 70 71 71 68 63 58
47 49 53 60 63 60 62 61 59 58 58 57 49 53 60 63 65 72 73 74 79 83 85 87 92 93 91 89 84 84 84 86 89 88 82 78 72 70 69 67 64 63 61 59
38 41 42 48 46 44 50 49 47 46 47 46 37 43 54 49 55 62 59 64 69 76 79 82 86 88 84 81 75 72 70 71 76 81 76 70 68 68 66 64 63 62 59 56
31 34 31 37 37 44 44 43 42 36 33 36 34 37 40 35 43 48 49 51 55 57 58 65 67 68 74 71 67 64 65 61 63 61 60 59 59 60 59 59 56 55 53 48
24 26 29 36 36 37 35 30 31 31 26 25 28 27 30 35 37 36 37 40 44 43 44 40 49 57 58 57 57 52 51 52 47 40 36 33 35 38 41 41 39 36 38 40
22 25 31 33 29 25 27 27 25 21 20 21 20 20 28 33 32 31 31 33 34 35 37 41 42 41 42 39 40 45 47 42 35 28 25 24 23 23 22 21 24 29 29 29
21 26 31 28 25 20 22 23 19 17 15 16 16 20 26 26 25 23 24 27 30 31 32 36 39 39 42 43 46 46 44 38 33 29 26 21 17 15 12 16 21 19 23 31
22 27 27 24 20 14 20 17 12 11 9 11 17 22 23 24 24 23 26 29 31 37 43 48 50 54 54 54 52 52 47 41 35 28 23 20 9 7 14 18 22 26 29 31
22 24 20 16 16 17 18 15 10 9 8 14 21 26 28 28 32 36 39 39 46 50 54 59 62 63 71 73 67 61 54 46 36 27 19 13 8 11 15 19 19 21 21 23
21 17 14 14 18 16 12 9 11 14 18 25 31 34 37 43 46 50 53 57 63 66 66 73 77 75 74 74 70 63 57 42 25 23 25 15 14 16 16 17 17 18 21 19
17 13 12 15 17 14 13 13 15 20 26 35 39 43 55 57 62 68 72 77 82 88 85 78 73 67 64 68 65 60 56 46 37 37 28 21 12 14 15 15 17 18 17 19
16 13 11 13 15 15 13 12 19 23 32 40 52 71 80 85 85 87 88 94 90 81 76 72 70 67 60 65 61 54 51 39 34 30 32 19 14 16 13 14 16 17 18 20
11 10 11 14 13 15 9 17 23 28 37 47 84 98 92 93 89 92 93 89 84 78 79 73 65 61 63 58 48 42 51 43 40 34 25 13 19 16 15 14 14 17 18 17
11 11 12 12 12 14 10 23 28 34 42 65 103 102 105 100 94 91 96 90 83 86 78 69 59 53 43 47 55 55 50 45 41 32 22 22 27 18 15 12 15 15 13 8
12 10 12 10 11 14 12 28 29 37 50 92 105 110 102 99 94 88 93 89 81 73 66 64 59 57 48 54 54 46 35 30 28 23 21 29 22 16 11 13 13 11 10 6
Wind_Direction
234 232 228 227 228 230 231 232 233 234 234 232 234 235 232 240 241 239 241 242 244 247 248 251 252 251 250 248 252 252 254 254 262 269 263 262 262 267 270 275 282 289 289 289
240 237 234 230 231 233 232 234 234 235 234 235 236 236 239 238 237 240 240 240 238 238 247 251 254 254 255 256 256 255 254 254 258 263 259 259 262 270 273 277 282 285 282 276
241 240 237 236 235 234 235 235 235 236 236 238 238 235 237 241 243 244 240 241 245 245 248 244 250 253 255 257 258 258 256 258 256 259 263 262 266 268 272 281 274 271 276 278
243 241 239 238 239 238 237 237 238 237 237 238 239 234 237 240 242 244 245 245 242 241 242 248 248 245 246 249 252 258 258 261 259 259 262 267 270 269 273 270 266 280 278 278
244 244 243 241 239 239 242 240 239 239 240 239 240 237 236 240 241 243 244 245 245 247 247 244 247 245 247 249 251 248 248 256 259 262 262 265 270 274 270 269 279 279 277 279
247 245 245 246 244 243 241 241 244 244 242 241 242 242 236 239 244 243 243 244 245 246 248 248 248 249 251 251 251 252 247 251 257 259 261 267 269 270 272 270 271 273 275 280
248 247 247 247 247 247 247 245 244 244 244 244 244 243 241 241 243 244 244 244 245 245 247 246 247 249 251 254 253 252 254 257 257 257 259 261 262 262 257 265 268 272 275 278
249 250 250 248 249 250 250 250 249 247 247 246 247 246 244 244 244 244 246 245 244 245 245 246 247 248 250 252 255 256 255 255 257 259 260 259 252 254 260 263 270 270 273 279
250 252 253 252 252 252 251 253 253 252 249 248 248 249 246 246 246 246 245 247 247 248 246 246 247 247 248 249 251 253 255 256 257 257 257 258 255 253 255 259 263 267 273 280
252 252 256 257 255 255 255 255 257 258 256 254 251 251 252 252 248 247 248 247 248 248 248 247 246 246 247 248 248 250 252 253 254 255 255 256 256 258 258 261 262 264 271 278
252 252 255 259 261 261 261 259 259 261 264 263 259 256 255 252 250 249 247 246 246 246 247 247 248 245 244 245 247 247 248 251 252 252 252 253 255 257 260 262 264 268 273 275
249 250 253 256 260 263 267 269 270 265 264 265 262 254 252 250 249 247 246 245 246 245 245 245 246 246 245 242 243 245 246 247 249 249 250 252 253 257 260 262 265 269 271 273
250 250 251 256 260 264 266 266 267 270 269 265 261 256 248 247 247 248 243 241 240 241 240 241 242 243 243 242 240 240 241 242 245 248 248 249 251 254 257 261 265 267 269 271
254 255 257 259 264 266 269 272 272 270 271 270 255 250 247 243 241 241 241 237 237 236 236 235 236 236 238 239 236 235 235 236 239 243 245 247 249 252 255 259 261 263 264 265
262 261 261 267 275 277 280 277 276 274 269 262 258 247 248 244 242 242 240 237 237 236 235 233 234 233 234 235 232 226 226 230 235 241 243 246 248 250 253 255 256 257 258 261
260 274 278 278 281 278 276 273 275 275 275 259 248 238 240 232 227 230 234 232 231 229 224 222 222 224 224 222 222 216 214 219 227 230 232 236 241 242 243 244 244 250 254 254
281 282 282 283 275 272 269 273 275 267 257 253 243 230 222 228 222 216 218 218 217 213 205 209 212 211 207 201 190 192 198 204 202 194 197 205 216 220 222 231 240 245 249 252
289 290 285 282 269 271 273 273 267 258 246 237 230 219 218 214 208 200 198 197 191 187 186 180 169 168 165 167 172 174 172 176 159 162 165 179 184 196 224 230 240 232 239 241
297 294 286 280 272 277 259 267 270 270 228 212 205 201 196 185 177 169 169 168 165 164 162 159 158 153 152 153 151 145 143 138 140 143 153 165 166 206 229 230 239 231 239 250
306 298 289 279 274 278 244 246 242 223 202 182 187 179 171 162 154 149 147 150 157 148 144 147 144 139 134 131 133 137 135 129 135 133 135 159 220 229 230 240 245 244 247 249
319 295 287 282 271 266 258 230 193 191 176 177 175 164 150 147 147 150 144 146 140 137 138 132 129 133 136 137 134 132 127 129 146 157 162 194 260 237 245 246 245 241 239 241
311 291 288 275 277 270 253 202 189 183 178 176 167 152 145 142 143 138 140 138 133 127 127 125 123 126 130 130 126 128 127 136 162 172 181 220 252 245 241 243 241 233 237 240
314 299 290 283 276 260 239 190 187 186 174 168 147 141 137 133 133 134 133 131 129 121 121 125 125 128 130 131 132 134 139 144 162 178 206 239 258 272 262 245 233 230 239 249
323 315 289 283 262 252 223 182 189 180 171 156 146 137 136 133 138 136 134 130 126 123 121 117 117 126 133 132 134 125 148 162 179 198 224 258 282 276 253 239 233 240 251 264
317 310 294 278 251 252 207 185 185 179 166 156 144 137 135 134 132 133 135 134 132 128 127 124 125 131 138 139 146 147 163 175 187 211 234 256 273 256 244 239 239 249 263 264
320 317 305 292 249 241 204 185 185 172 162 157 146 141 138 141 138 137 141 136 129 132 136 138 139 140 142 148 150 162 176 186 204 219 242 255 243 234 233 235 249 254 260 238
Height
10552 10555 10562 10573 10579 10585 10594 10603 10612 10620 10630 10645 10654 10669 10672 10677 10683 10694 10700 10706 10711 10715 10717 10718 10723 10727 10740 10756 10766 10772 10780 10789 10793 10798 10800 10804 10804 10805 10806 10806 10805 10804 10804 10805
10541 10544 10551 10558 10565 10572 10579 10586 10594 10600 10611 10623 10632 10653 10653 10659 10661 10670 10681 10684 10691 10699 10700 10704 10707 10712 10721 10734 10749 10758 10768 10776 10781 10785 10790 10792 10792 10793 10793 10794 10794 10792 10794 10793
10531 10534 10538 10543 10550 10557 10563 10568 10573 10582 10590 10599 10607 10635 10635 10639 10644 10643 10655 10667 10672 10679 10686 10688 10690 10697 10707 10719 10730 10742 10750 10759 10769 10771 10776 10781 10782 10781 10780 10781 10782 10784 10784 10782
10520 10523 10526 10529 10532 10536 10541 10548 10554 10561 10569 10576 10582 10612 10611 10614 10619 10622 10630 10635 10642 10656 10665 10669 10675 10680 10689 10697 10710 10720 10731 10738 10748 10755 10764 10768 10770 10773 10766 10769 10772 10776 10776 10772
10508 10508 10511 10512 10515 10519 10523 10529 10533 10540 10549 10557 10561 10573 10604 10590 10595 10594 10603 10611 10624 10632 10641 10650 10653 10660 10672 10683 10688 10703 10715 10724 10733 10739 10744 10752 10756 10755 10753 10759 10762 10764 10763 10760
10492 10494 10494 10496 10498 10503 10507 10510 10514 10520 10527 10537 10535 10542 10585 10574 10566 10574 10584 10590 10595 10606 10619 10629 10635 10638 10648 10660 10672 10679 10694 10707 10718 10725 10728 10734 10738 10734 10741 10746 10750 10750 10749 10749
10477 10478 10480 10480 10482 10485 10488 10491 10493 10496 10499 10510 10508 10518 10552 10547 10542 10550 10558 10562 10566 10579 10593 10604 10611 10619 10625 10629 10645 10661 10672 10685 10696 10710 10721 10724 10722 10720 10727 10731 10736 10738 10737 10737
10462 10462 10462 10465 10468 10468 10469 10471 10471 10475 10474 10482 10484 10499 10512 10515 10525 10528 10522 10527 10542 10554 10566 10577 10587 10598 10606 10613 10620 10630 10649 10666 10673 10684 10701 10709 10709 10707 10713 10716 10722 10726 10725 10727
10447 10447 10443 10444 10446 10450 10454 10452 10447 10446 10450 10457 10465 10471 10489 10483 10491 10494 10497 10507 10517 10527 10539 10553 10562 10574 10585 10593 10600 10610 10623 10641 10656 10667 10675 10685 10690 10694 10699 10704 10712 10711 10714 10715
10429 10432 10422 10421 10425 10430 10432 10430 10428 10423 10427 10432 10448 10451 10456 10453 10461 10461 10478 10486 10489 10495 10508 10521 10534 10546 10553 10569 10582 10592 10605 10621 10634 10648 10659 10665 10670 10678 10686 10693 10696 10697 10701 10705
10407 10413 10410 10404 10399 10406 10405 10409 10408 10407 10406 10406 10415 10430 10420 10419 10427 10437 10442 10449 10458 10468 10477 10490 10498 10513 10527 10545 10556 10572 10589 10601 10615 10627 10636 10646 10654 10662 10669 10677 10680 10683 10687 10690
10389 10395 10396 10390 10386 10388 10386 10381 10385 10386 10382 10381 10387 10407 10379 10388 10399 10402 10413 10419 10432 10439 10451 10463 10473 10485 10501 10520 10537 10553 10573 10586 10592 10607 10619 10630 10640 10648 10655 10660 10664 10669 10674 10676
10376 10380 10380 10375 10373 10376 10371 10366 10363 10361 10360 10359 10365 10364 10362 10367 10374 10375 10385 10395 10401 10411 10424 10436 10445 10458 10477 10497 10519 10537 10554 10567 10575 10584 10602 10616 10627 10634 10640 10646 10652 10657 10661 10663
10362 10363 10366 10362 10360 10360 10352 10350 10349 10348 10345 10343 10345 10344 10337 10350 10353 10353 10365 10372 10381 10385 10394 10409 10422 10437 10459 10477 10502 10521 10536 10548 10559 10569 10588 10604 10613 10620 10627 10634 10639 10645 10648 10650
10351 10349 10352 10348 10349 10343 10342 10337 10332 10332 10332 10329 10330 10327 10328 10336 10338 10341 10349 10356 10362 10371 10384 10391 10409 10431 10442 10459 10482 10502 10519 10536 10549 10564 10579 10592 10602 10609 10617 10623 10628 10632 10635 10637
10341 10340 10340 10335 10336 10332 10327 10326 10322 10321 10319 10318 10318 10318 10322 10323 10324 10330 10337 10344 10349 10362 10372 10387 10399 10410 10427 10447 10466 10490 10510 10526 10541 10557 10570 10583 10592 10600 10606 10612 10615 10619 10623 10624
10333 10332 10329 10323 10324 10322 10318 10314 10314 10312 10310 10308 10309 10311 10312 10313 10317 10321 10329 10337 10346 10356 10366 10375 10388 10405 10421 10442 10462 10482 10501 10521 10534 10550 10562 10575 10586 10593 10596 10602 10606 10611 10614 10616
10325 10323 10318 10315 10315 10313 10309 10307 10307 10303 10302 10302 10303 10303 10305 10310 10315 10320 10328 10337 10345 10353 10364 10376 10387 10403 10417 10439 10457 10476 10498 10518 10533 10548 10557 10574 10582 10585 10591 10597 10600 10608 10609 10610
10317 10313 10309 10307 10307 10305 10302 10301 10300 10299 10299 10300 10300 10299 10303 10309 10314 10322 10329 10338 10346 10354 10365 10376 10388 10404 10423 10440 10458 10480 10499 10518 10534 10547 10557 10571 10577 10582 10588 10592 10597 10601 10603 10604
10311 10306 10303 10302 10299 10299 10298 10298 10298 10298 10298 10298 10297 10299 10305 10311 10317 10324 10335 10343 10352 10357 10369 10384 10401 10414 10428 10444 10460 10481 10498 10513 10530 10546 10558 10569 10577 10581 10585 10588 10592 10594 10596 10597
10306 10302 10299 10296 10294 10295 10294 10295 10294 10293 10295 10294 10295 10300 10309 10316 10322 10328 10338 10352 10359 10369 10387 10401 10412 10425 10434 10448 10463 10480 10494 10510 10528 10548 10562 10573 10578 10579 10581 10583 10585 10587 10589 10592
10301 10297 10294 10292 10292 10293 10292 10292 10291 10289 10291 10293 10297 10307 10312 10320 10326 10336 10350 10363 10371 10386 10398 10411 10420 10435 10448 10459 10469 10484 10497 10517 10538 10552 10562 10569 10572 10576 10577 10578 10580 10582 10584 10587
10299 10295 10292 10291 10291 10289 10289 10291 10288 10288 10292 10298 10308 10313 10318 10327 10338 10346 10360 10372 10386 10400 10409 10422 10429 10443 10455 10463 10476 10490 10502 10522 10539 10552 10558 10564 10567 10569 10571 10572 10575 10578 10580 10581
10296 10293 10290 10287 10287 10284 10288 10288 10287 10290 10298 10309 10316 10321 10328 10340 10352 10360 10373 10385 10399 10408 10419 10429 10441 10453 10465 10475 10484 10497 10511 10526 10540 10549 10556 10558 10562 10565 10567 10570 10572 10574 10576 10577
10293 10290 10288 10287 10285 10283 10286 10285 10287 10292 10302 10315 10321 10327 10334 10349 10364 10374 10385 10393 10405 10416 10428 10437 10449 10463 10474 10483 10494 10502 10517 10532 10541 10549 10551 10555 10560 10562 10564 10566 10568 10570 10572 10572
10293 10289 10287 10286 10283 10281 10282 10284 10287 10295 10309 10323 10329 10334 10341 10354 10372 10383 10391 10403 10412 10423 10432 10437 10449 10464 10479 10491 10502 10515 10525 10534 10542 10545 10548 10553 10556 10558 10560 10562 10564 10567 10568 10568